Regional Weather Roundup
Issued by NWS Cleveland, OH

Home | Current Version | Previous Version | Graphics & Text | Print | Product List | Glossary On
Versions: 1 2 3 4 5 6 7 8 9 10 11 12 13 14 15 16 17 18 19 20 21 22 23 24 25 26 27 28 29 30 31 32 33 34 35 36 37 38 39 40 41 42 43 44 45 46 47 48 49 50
000
ASUS41 KCLE 162202
RWRCLE
OHIO REGIONAL WEATHER ROUNDUP
NATIONAL WEATHER SERVICE CLEVELAND, OH
500 PM EST MON JAN 16 2017

NOTE: "FAIR" INDICATES FEW OR NO CLOUDS BELOW 12,000 FEET WITH NO
SIGNIFICANT WEATHER AND/OR OBSTRUCTIONS TO VISIBILITY.

OHZ001>008-015>018-024>027-034-035-043-044-162300-
   NORTHWEST OHIO

CITY           SKY/WX    TMP DP  RH WIND       PRES   REMARKS
DEFIANCE       FOG       36  33  89 E9        30.18F VSB 3/4
FINDLAY        CLOUDY    38  34  85 SE8       30.17F FOG
TOLEDO EXPRESS CLOUDY    35  29  78 E7        30.20S WCI  29
TOLEDO EXEC    CLOUDY    35  32  88 E5        30.22S FOG
LIMA           CLOUDY    38  38 100 E8        30.16F FOG
$$

OHZ009>014-019>023-028>033-038-089-162300-
   NORTHEAST OHIO

CITY           SKY/WX    TMP DP  RH WIND       PRES   REMARKS
CLE-HOPKINS    CLOUDY    39  33  79 E5        30.25F
CLE-LAKEFRONT  CLOUDY    35  30  82 CALM      30.24F
CUY CO. ARPT   CLOUDY    39  30  70 SE8       30.24F
LORAIN-ELYRIA  CLOUDY    36  32  85 SE5       30.22S FOG
ASHTABULA      NOT AVBL
AKRON-CANTON   CLOUDY    37  31  78 E8        30.23F HAZE
WOOSTER        CLOUDY    36  33  89 E6        30.22S FOG
MANSFIELD      LGT RAIN  37  36  96 E8        30.18F FOG
YOUNGSTOWN     CLOUDY    34  28  79 E5        30.25F WCI  30
$$

OHZ042-051>053-060>062-070>072-077>081-162300-
  SOUTHWEST OHIO

CITY           SKY/WX    TMP DP  RH WIND       PRES   REMARKS
CINC-COVINGTON CLOUDY    49  48  97 SE6       30.15S FOG
CINC-LUNKEN    CLOUDY    50  49  96 CALM      30.17S
HAMILTON       CLOUDY    51  47  86 CALM      30.17S
DAYTON         CLOUDY    47  44  90 SE7       30.15F
WRIGHT-PAT AFB CLOUDY    49  48  96 E8        30.15F
DAYTON GENERAL CLOUDY    48  46  93 SE6       30.16R
WILMINGTON     MOCLDY    48  46  93 SE8       30.16S
$$

OHZ036-037-039>041-045>050-054>059-063>069-073>076-082>088-162300-
  CENTRAL AND SOUTHEAST OHIO

CITY           SKY/WX    TMP DP  RH WIND       PRES   REMARKS
COLUMBUS       CLOUDY    47  43  86 E5        30.19R
OSU AIRPORT    MOCLDY    45  43  93 E5        30.19S FOG
BOLTON FIELD   CLOUDY    45  43  93 CALM      30.19S
RICKENBACK AFB   N/A     45  45  98 CALM      30.19S
NEWARK         CLOUDY    43  40  89 NE5       30.20S FOG
MARION         CLOUDY    41  38  89 SE6       30.19S FOG
LANCASTER      PTCLDY    49  43  80 E5        30.20S
ZANESVILLE     CLOUDY    45  41  86 NE5       30.21F
NEW PHILLY     NOT AVBL
$$




USA.gov is the U.S. government's official web portal to all federal, state and local government web resources and services.